SB KEPS @ AMSAT $ORB11076.N 2Line Orbital Elements 11076.AMSAT
HR AMSAT ORBITAL ELEMENTS FOR AMATEUR SATELLITES IN NASA FORMAT FROM WA5QGD FORT WORTH,TX March 17, 2011 Send Subscribe/unsubscribe to KEPS at http://www.amsat.org/mailman/listinfo/keps BID: ORB11076.N
DECODE 2-LINE ELSETS WITH THE FOLLOWING KEY: 1 AAAAAU 00 0 0 BBBBB.BBBBBBBB .CCCCCCCC 00000-0 00000-0 0 DDDZ 2 AAAAA EEE.EEEE FFF.FFFF GGGGGGG HHH.HHHH III.IIII JJ.JJJJJJJJKKKKKZ KEY: A-CATALOGNUM B-EPOCHTIME C-DECAY D-ELSETNUM E-INCLINATION F-RAAN G-ECCENTRICITY H-ARGPERIGEE I-MNANOM J-MNMOTION K-ORBITNUM Z-CHECKSUM
TO ALL RADIO AMATEURS BT
AO-07 1 07530U 74089B 11075.58113605 -.00000027 00000-0 10000-3 0 00317 2 07530 101.3958 085.7740 0012088 100.9648 259.2784 12.53581500662586 FO-29 1 24278U 96046B 11076.87422025 .00000022 00000-0 55852-4 0 5262 2 24278 098.5316 233.3681 0351160 133.8676 229.2049 13.52958328720118 SO-33 1 25509U 98061B 11075.28128155 .00000278 00000-0 42903-4 0 09271 2 25509 031.4323 049.7665 0353651 149.1844 213.0054 14.28376098646986 RS-22 1 27939U 03042A 11076.61068718 .00000212 00000-0 49430-4 0 823 2 27939 097.8589 294.9279 0012539 277.1413 082.8353 14.63528497398946 VO-52 1 28650U 05017B 11075.86706574 .00000281 00000-0 41583-4 0 07456 2 28650 097.6544 123.0847 0028207 103.6798 256.7512 14.81944252317072 SO-67 1 35870U 09049F 11076.83862192 .00002213 00000-0 10148-3 0 6553 2 35870 097.2937 123.1669 0002088 185.5058 290.1563 15.21457594 83055 HO-68 1 36122U 09072B 11076.72517019 -.00000044 00000-0 00000 0 0 2024 2 36122 100.4268 138.8870 0008095 074.4036 285.7972 13.16284740 60202 UO-11 1 14781U 84021B 11076.86430711 .00000349 00000-0 53240-4 0 4978 2 14781 098.0157 133.8166 0010200 075.7465 284.4871 14.79909928452281 AO-16 1 20439U 90005D 11076.83286125 .00000114 00000-0 58185-4 0 1429 2 20439 098.3731 029.5522 0011923 074.3947 285.8555 14.31901889104542 LO-19 1 20442U 90005G 11075.87872685 .00000024 00000-0 24200-4 0 00619 2 20442 098.3360 033.3432 0012841 072.4029 287.8558 14.32128772104589 AO-27 1 22825U 93061C 11075.88738111 .00000168 00000-0 82805-4 0 7719 2 22825 098.5221 022.2864 0008257 181.4428 178.6728 14.29332250911003 IO-26 1 22826U 93061D 11076.88354674 .00000114 00000-0 61315-4 0 5126 2 22826 098.5160 023.7662 0008810 172.9766 187.1541 14.29592423911269 GO-32 1 25397U 98043D 11075.81376805 .00000086 00000-0 56146-4 0 4302 2 25397 098.3228 073.3362 0001444 144.0447 216.0832 14.23199584658828 NO-44 1 26931U 01043C 11076.53618721 .00000182 00000-0 10303-3 0 7042 2 26931 067.0516 219.6807 0007087 269.8886 090.1372 14.29641311493820 SO-50 1 27607U 02058C 11075.58351555 .00000312 00000-0 70374-4 0 04174 2 27607 064.5575 249.0516 0062469 342.5459 017.3488 14.71667306442464 CO-55 1 27844U 03031E 11076.55707121 .00000204 00000-0 11457-3 0 678 2 27844 098.7083 086.5854 0010514 100.8633 259.3740 14.20779314399908 CO-57 1 27848U 03031J 11076.55680751 .00000167 00000-0 97716-4 0 155 2 27848 098.7140 085.7439 0010395 104.7770 255.4565 14.20562899399852 AO-51 1 28375U 04025K 11076.64661291 .00000112 00000-0 46298-4 0 9218 2 28375 098.0888 059.9482 0084609 348.4171 011.5075 14.40732639352884 CP3 1 31129U 07012N 11075.69925485 .00000309 00000-0 80988-4 0 08233 2 31129 097.9097 105.2265 0103427 108.1693 253.0758 14.52398283207414 CO-65 1 32785U 08021C 11075.64353004 .00000663 00000-0 90261-4 0 09408 2 32785 097.8588 141.2726 0015987 115.8204 244.4621 14.81867121155830 KKS-1 1 33493U 09002B 11076.78377588 .00001990 00000-0 26072-3 0 4030 2 33493 098.1114 204.1504 0019448 339.7244 020.3181 14.81410621115989 SOHLA-1 1 33496U 09002E 11076.88226741 .00000193 00000-0 40778-4 0 3604 2 33496 098.0713 187.6881 0007513 059.0752 301.1186 14.69570702115073 TISAT-1 1 36799U 10035E 11076.89520938 .00000924 00000-0 12806-3 0 6781 2 36799 098.1112 144.2162 0014793 208.5100 151.5190 14.80370567 36808 STUDSAT 1 36801U 10035G 11075.81871030 .00003278 00000-0 43839-3 0 01676 2 36801 098.1148 142.9757 0013608 200.6459 159.4203 14.80142020036634 RAX 1 37223U 0 11076.46296103 .00001193 00000-0 17541-3 0 01114 2 37223 071.9712 241.1662 0019162 097.1868 263.1474 14.77281669017349 OOREOS 1 37224U 10062C 11076.42207246 .00000868 00000-0 13086-3 0 01095 2 37224 071.9712 241.3960 0017800 096.5373 263.7815 14.76929834017329 NANOSALD 1 37225U 0 11073.19059273 .00109841 00000-0 13623-1 0 00829 2 37225 071.9764 248.2839 0026789 057.9293 302.4366 14.81737623007966 FAST1-2 1 37227U 0 11076.46150311 .00000309 00000-0 52301-4 0 01042 2 37227 071.9707 241.5035 0015604 091.4474 268.8479 14.76407590017329 NOAA-10 1 16969U 86073A 11075.96548552 .00000054 00000-0 39670-4 0 04367 2 16969 098.6293 106.9675 0012885 132.3167 227.9108 14.27448165274498 NOAA-11 1 19531U 88089A 11075.70485389 .00000083 00000-0 65225-4 0 04383 2 19531 098.7521 164.9173 0011991 092.3257 267.9285 14.14907573159671 NOAA-12 1 21263U 91032A 11075.93976769 .00000148 00000-0 81063-4 0 09488 2 21263 098.7565 093.9273 0013360 094.2066 266.0642 14.25691234031264 MET-3/5 1 21655U 91056A 11075.90805917 .00000051 00000-0 10000-3 0 00635 2 21655 082.5555 115.9798 0014250 032.5542 327.6473 13.17029199941574 MET-2/21 1 22782U 93055A 11075.91281419 .00000077 00000-0 56188-4 0 00461 2 22782 082.5473 036.0806 0022698 002.0924 358.0326 13.83654338885797 OKEAN-4 1 23317U 94066A 11076.87623114 .00000362 00000-0 41472-4 0 5010 2 23317 082.5376 098.4003 0023827 061.6004 298.7609 14.82965713887013 NOAA-14 1 23455U 94089A 11075.96387130 .00000001 00000-0 24062-4 0 04376 2 23455 098.8546 159.5084 0009355 176.3626 183.7614 14.13809196836049 NOAA-15 1 25338U 98030A 11075.89627304 .00000132 00000-0 75004-4 0 07460 2 25338 098.6485 063.3368 0010896 006.5251 353.6059 14.24891072667586 RESURS 1 25394U 98043A 11076.63729879 .00000026 00000-0 28712-4 0 7487 2 25394 098.3006 084.7033 0002074 116.0935 244.0458 14.24225725659274 FENGYUN1 1 25730U 99025A 11075.90035076 .00000683 00000-0 42202-3 0 2809 2 25730 098.8115 039.1499 0022258 209.3645 150.6275 14.08535167610074 OKEAN-0 1 25860U 99039A 11075.96094297 .00000427 00000-0 72798-4 0 02770 2 25860 097.8731 045.0030 0000833 046.6936 313.4341 14.73728496627070 NOAA-16 1 26536U 00055A 11075.92722976 .00000031 00000-0 41672-4 0 02283 2 26536 099.1505 104.5580 0009762 293.3829 066.6311 14.12601453540331 NOAA-17 1 27453U 02032A 11075.72494363 .00000275 00000-0 13688-3 0 02222 2 27453 098.3921 119.6331 0012580 062.8775 297.3692 14.24247030453490 NOAA-18 1 28654U 05018A 11075.73350433 -.00000085 00000-0 -21900-4 0 07046 2 28654 098.9861 026.7009 0014579 008.9851 351.1564 14.11446160299888 NOAA-19 1 33591U 09005A 11075.71027057 -.00000052 00000-0 -47998-5 0 08976 2 33591 098.8193 017.4551 0013277 236.5972 123.3927 14.11139258108346 HUBBLE 1 20580U 90037B 11076.11330575 .00001442 00000-0 96912-4 0 7275 2 20580 028.4716 257.8493 0003299 222.1407 137.8767 15.01216185945809 ISS 1 25544U 98067A 11076.98360876 .00029015 00000-0 21149-3 0 215 2 25544 051.6460 268.7443 0006148 073.9775 088.8527 15.73024963706545 CO-58 1 28895U 05043F 11076.64574452 .00000235 00000-0 58084-4 0 8264 2 28895 097.9811 316.5062 0018841 145.3556 214.8877 14.60030317286887 FALCON 1 30776U 07006E 11075.73354645 .00002137 00000-0 15353-3 0 430 2 30776 035.4327 188.9868 0001274 337.6454 022.4208 15.04235127221118 MAST 1 31126U 07012K 11076.83669542 .00000206 00000-0 56460-4 0 1097 2 31126 097.9056 109.1892 0095702 095.1901 266.0235 14.53690329207813 CAPE1 1 31130U 07012P 11076.59943428 .00000249 00000-0 67303-4 0 1290 2 31130 097.9109 105.8734 0103798 105.2990 255.9708 14.52312354207349 COMPASS 1 32787U 08021E 11075.66517399 .00000869 00000-0 11540-3 0 09355 2 32787 097.8568 141.1766 0016631 116.0311 244.2614 14.82203261155854 AAUSAT2 1 32788U 08021F 11076.65254524 .00000590 00000-0 80155-4 0 9253 2 32788 097.8579 142.3426 0016497 113.9757 246.2993 14.82372843156017 DO-64 1 32789U 08021G 11076.82242580 .00001928 00000-0 24487-3 0 9422 2 32789 097.8662 143.3509 0016722 112.8892 247.4070 14.82707076156045 CO-66 1 32791U 08021J 11075.59605798 .00000641 00000-0 87382-4 0 09281 2 32791 097.8577 141.0765 0016909 115.1586 245.1390 14.81933122155798 RS-30 1 32953U 08025A 11076.79249928 .00000010 00000-0 00000 0 0 5606 2 32953 082.4997 219.5291 0018435 223.4775 136.4856 12.43010959127730 TACSAT-3 1 35001U 09028A 11076.87353316 .00014681 00000-0 29737-3 0 5367 2 35001 040.4546 006.0469 0024308 251.2641 108.5269 15.45720155102938 PHARMSAT 1 35002U 09028B 11075.92562869 .00013321 00000-0 26934-3 0 05027 2 35002 040.4737 009.2531 0026232 250.2748 109.5233 15.45778538102818 HAWKSAT1 1 35003U 09028C 11075.84735648 .00040262 00000-0 59047-3 0 05515 2 35003 040.4600 351.7163 0025468 273.1266 086.6632 15.54351611103002 CP6 1 35004U 09028D 11075.88526919 .00053339 00000-0 70096-3 0 05526 2 35004 040.4610 346.6004 0025570 278.9737 080.7879 15.57206385103054 AEROCUB3 1 35005U 09028E 11006.09222617 .14049365 73043-5 82692-3 0 6103 2 35005 040.4461 021.7975 0025578 084.1677 280.7191 16.39196088 92544 METEOR-M 1 35865U 09049A 11076.73893655 .00000176 00000-0 10000-3 0 1956 2 35865 098.7178 133.0084 0001950 314.5788 045.5188 14.21835242 77590 RS-38 1 35869U 09049E 11076.75002460 .00000177 00000-0 10000-3 0 2039 2 35869 098.7156 133.0588 0004107 303.5164 056.5601 14.22002745 77601 /EX
participants (1)
-
Ray Hoad